[[{"header":{"parameterUnit":"m.s-1","parameterCategory":1,"la1":30.2991,"la2":30.254,"lo1":-89.0895,"lo2":-89.0444,"dy":0.0017,"dx":0.0017,"nx":28,"ny":28,"refTime":"2025-05-18T21:00:00:Z","depth":0,"parameterNumber":2,"parameterNumberName":"U-component_of_WINDS"},"data":[0,0,0,0,0,0,0,0,0,0,0,0,0,0,0,0,0,0,0,0,0,0,0,0,0,0,0,0,0,0,0,0,0,0,0,0,0,0,0,0,0,0,0,0,0,0,0,0,0,0,0,0,0,0,0,0,0,0,0.4846,0.4847,0,0.4919,0.492,0.4921,0.4909,0.4908,0.4907,0.4905,0.4985,0.4988,0.4991,0,0,0,0,0,0,0,0,0,0,0,0,0,0.4698,0.4701,0.4846,0.4847,0.4848,0.4919,0.492,0.4921,0.4909,0.4908,0.4906,0.4905,0.4984,0.4987,0.4991,0,0,0,0,0,0,0,0,0,0,0,0,0,0.4766,0.4702,0.4846,0.485,0.4851,0.4919,0.492,0.4922,0.491,0.4908,0.4906,0.4904,0.4982,0.4987,0.4992,0.5061,0,0,0.5007,0.5009,0,0,0,0,0,0,0,0,0.4762,0.4772,0.4849,0.485,0.4851,0.4903,0.4897,0.4968,0.491,0.4888,0.4905,0.4903,0.4959,0.4966,0.4984,0.5065,0.5068,0.5008,0.5011,0.5013,0.5014,0,0,0,0,0,0,0,0.4758,0.4768,0.4875,0.485,0.4852,0.485,0.4857,0.4911,0.4934,0.4889,0.4889,0.4897,0.496,0.4979,0.4986,0.5069,0.5007,0.5012,0.5015,0.5017,0.521,0.5212,0,0,0,0,0,0,0.4751,0.4765,0.4873,0.4877,0.4801,0.4854,0.4862,0.4889,0.4933,0.4938,0.4899,0.4897,0.4972,0.498,0.4989,0.5072,0.5013,0.5017,0.502,0.5207,0.521,0.5212,0,0,0,0,0,0,0.4748,0.4761,0.487,0.4821,0.4834,0.4858,0.4888,0.4891,0.4911,0.494,0.4944,0.4915,0.4971,0.4982,0.5043,0.5075,0.502,0.5024,0.5205,0.5208,0.5211,0.524,0,0,0,0,0,0,0.4744,0.476,0.4786,0.4821,0.4837,0.4922,0.489,0.4894,0.4919,0.4916,0.4956,0.4961,0.497,0.5035,0.5048,0.5081,0.5028,0.5202,0.5206,0.521,0.5236,0.5244,0.525,0,0,0,0,0,0.4739,0.4792,0.4787,0.48,0.487,0.4924,0.4933,0.4941,0.4921,0.4948,0.4967,0.4959,0.5069,0.5042,0.5055,0.509,0.52,0.5205,0.521,0.5233,0.5242,0.525,0,0,0,0,0,0,0.4761,0.4797,0.4792,0.4858,0.4888,0.4921,0.4955,0.4951,0.4988,0.4984,0.4994,0.5004,0.5065,0.5084,0.5053,0.5159,0.5132,0.514,0.5145,0.5154,0.5161,0.5155,0.5032,0,0,0,0,0,0.4773,0.4813,0.4842,0.4898,0.4913,0.4931,0.4955,0.4959,0.4991,0.5004,0.5027,0.5059,0.5101,0.5128,0.5168,0.5238,0.5247,0.5269,0.5276,0.5282,0.5289,0.5327,0.5337,0.5228,0.5228,0.5228,0,0,0.48,0.4824,0.4849,0.4903,0.4927,0.4968,0.4942,0.4988,0.5019,0.5011,0.507,0.5088,0.5124,0.519,0.522,0.5208,0.532,0.5288,0.5292,0.5296,0.5333,0.5343,0.5352,0.5232,0.5231,0.523,0,0,0.4869,0.4892,0.494,0.4964,0.4999,0.5011,0.5022,0.5057,0.5068,0.5126,0.5121,0.5159,0.523,0.5256,0.5279,0.5357,0.5352,0.537,0.5407,0.5444,0.5452,0.546,0.5488,0.5498,0.5377,0.5377,0.5377,0,0.4898,0.496,0.4966,0.5012,0.5036,0.5029,0.5078,0.5101,0.5148,0.5166,0.515,0.5239,0.5263,0.5335,0.5353,0.5372,0.5386,0.5366,0.545,0.5458,0.5465,0.5492,0.5503,0.5379,0.5378,0.5378,0.5378,0,0.4994,0.5037,0.5072,0.5115,0.5144,0.5191,0.5205,0.5233,0.5234,0.5247,0.5307,0.5335,0.5381,0.5398,0.54,0.547,0.5461,0.5448,0.5421,0.5478,0.5503,0.5514,0.5381,0.5381,0.538,0.538,0,0,0.5081,0.5126,0.5139,0.5159,0.5196,0.523,0.5277,0.532,0.5344,0.5376,0.5417,0.5476,0.5464,0.549,0.5495,0.5527,0.5587,0.551,0.5511,0.5524,0.5666,0.5676,0.5688,0.5584,0.5586,0.5587,0.5663,0,0.5154,0.5236,0.5242,0.5317,0.5357,0.535,0.5391,0.5419,0.5433,0.5469,0.5485,0.5527,0.5508,0.5523,0.5555,0.5573,0.5616,0.5568,0.5622,0.5624,0.5614,0.5701,0.5712,0.5782,0.5673,0.5675,0.5676,0,0.5251,0.5285,0.5363,0.5394,0.5411,0.5448,0.5487,0.5522,0.5553,0.5561,0.5589,0.5589,0.5638,0.5608,0.5677,0.5644,0.5666,0.5678,0.5681,0.5688,0.5654,0.571,0.5805,0.5816,0.5692,0.569,0.5689,0,0.5307,0.5372,0.5427,0.5444,0.5482,0.5508,0.5525,0.5554,0.558,0.5614,0.5631,0.5671,0.5694,0.5725,0.5737,0.5714,0.5805,0.5776,0.5813,0.5813,0.5833,0.5832,0.5934,0.5847,0.5847,0.5846,0.5846,0,0.5388,0.5437,0.5452,0.5486,0.554,0.5546,0.56,0.5616,0.5642,0.5679,0.5676,0.5712,0.5724,0.5762,0.5771,0.5826,0.5836,0.5844,0.5846,0.5845,0.5844,0.5861,0.5856,0.5849,0.5849,0.5848,0.5848,0,0.546,0.5473,0.5532,0.5562,0.5571,0.561,0.5636,0.5669,0.5681,0.5729,0.574,0.5761,0.5805,0.5819,0.5872,0.5878,0.5943,0.5941,0.5932,0.5932,0.5969,0.5966,0.6086,0.6102,0.6004,0.6004,0.6005,0,0.5512,0.5549,0.5582,0.5607,0.5624,0.5664,0.5689,0.5697,0.5723,0.5761,0.579,0.5833,0.5868,0.5939,0.5959,0.6,0.5999,0.6038,0.6005,0.6003,0.6,0.5998,0.6002,0.6045,0.6046,0.6047,0.6047,0,0.5602,0.5606,0.5642,0.568,0.5709,0.574,0.5769,0.579,0.5802,0.5832,0.5876,0.5903,0.5957,0.6,0.6041,0.606,0.6056,0.6057,0.6068,0.6067,0.6061,0.6065,0.5949,0.6055,0.6054,0.6053,0.6053,0.6053,0.5666,0.5698,0.5727,0.5766,0.5789,0.5816,0.5848,0.5864,0.5901,0.5944,0.5947,0.5995,0.6026,0.608,0.6101,0.6139,0.6128,0.6144,0.6148,0.6152,0.6155,0.6054,0.6147,0.6147,0.6147,0.6146,0.6146,0,0.5756,0.5774,0.581,0.5851,0.5882,0.5874,0.5906,0.5933,0.5975,0.6003,0.6037,0.6088,0.6129,0.6152,0.6194,0.622,0.6219,0.6231,0.6229,0.6234,0.6163,0.6149,0.623,0.623,0.623,0.623,0.623,0.623,0.5807,0.5861,0.5868,0.5933,0.595,0.5996,0.6015,0.6041,0.6063,0.6119,0.6153,0.6167,0.6194,0.6237,0.6275,0.628,0.6296,0.6309,0.6314,0.6247,0.6239,0.623,0.6218,0.6312,0.6312,0.6381,0.6382,0.6383]},{"header":{"parameterUnit":"m.s-1","parameterCategory":1,"la1":30.2991,"la2":30.254,"lo1":-89.0895,"lo2":-89.0444,"dy":0.0017,"dx":0.0017,"nx":28,"ny":28,"refTime":"2025-05-18T21:00:00:Z","depth":0,"parameterNumber":3,"parameterNumberName":"V-component_of_WINDS"},"data":[0,0,0,0,0,0,0,0,0,0,0,0,0,0,0,0,0,0,0,0,0,0,0,0,0,0,0,0,0,0,0,0,0,0,0,0,0,0,0,0,0,0,0,0,0,0,0,0,0,0,0,0,0,0,0,0,0,0,3.7907,3.7907,0,3.7916,3.7916,3.7916,3.7856,3.7854,3.7852,3.7851,3.7859,3.786,3.7862,0,0,0,0,0,0,0,0,0,0,0,0,0,3.7834,3.7836,3.7907,3.7907,3.7907,3.7916,3.7916,3.7916,3.7856,3.7854,3.7852,3.785,3.7858,3.786,3.7862,0,0,0,0,0,0,0,0,0,0,0,0,0,3.7857,3.7837,3.7906,3.7878,3.7875,3.7916,3.7916,3.7916,3.7856,3.7854,3.7851,3.7849,3.7857,3.786,3.7863,3.793,0,0,3.7871,3.7872,0,0,0,0,0,0,0,0,3.7856,3.786,3.7882,3.788,3.7877,3.7882,3.7893,3.7921,3.7857,3.7864,3.7851,3.7848,3.7868,3.787,3.7877,3.7931,3.7931,3.7871,3.7873,3.7874,3.7875,0,0,0,0,0,0,0,3.7854,3.7859,3.791,3.7882,3.788,3.7864,3.7864,3.7898,3.788,3.7863,3.7859,3.7861,3.7867,3.7875,3.7877,3.7931,3.7871,3.7873,3.7875,3.7876,3.8041,3.8044,0,0,0,0,0,0,3.7857,3.7858,3.791,3.791,3.786,3.7867,3.7868,3.7883,3.788,3.7877,3.7863,3.7858,3.7872,3.7874,3.7877,3.7957,3.7874,3.7876,3.7878,3.8038,3.8042,3.8045,0,0,0,0,0,0,3.7856,3.7862,3.7909,3.7883,3.7888,3.7871,3.7889,3.7885,3.7893,3.788,3.7876,3.7875,3.787,3.7873,3.7918,3.7956,3.7878,3.788,3.8035,3.804,3.8043,3.8117,0,0,0,0,0,0,3.7854,3.7862,3.7888,3.7884,3.789,3.7951,3.7891,3.7887,3.7898,3.7891,3.789,3.7887,3.7868,3.7914,3.7921,3.7959,3.7882,3.8032,3.8037,3.8042,3.8111,3.8123,3.8134,0,0,0,0,0,3.7851,3.7908,3.789,3.7896,3.7922,3.7953,3.7956,3.7934,3.7901,3.7927,3.7919,3.7887,3.7951,3.7919,3.7926,3.7965,3.8029,3.8036,3.8042,3.8106,3.8121,3.8133,0,0,0,0,0,0,3.7916,3.7907,3.7887,3.7944,3.795,3.7943,3.7975,3.795,3.7965,3.7958,3.7928,3.7929,3.7978,3.7976,3.7941,3.8031,3.7984,3.7992,3.8031,3.8045,3.8056,3.8056,3.7884,0,0,0,0,0,3.7937,3.7964,3.7954,3.8005,3.8009,3.7992,3.8005,3.7987,3.7991,3.7994,3.7988,3.7994,3.8015,3.8029,3.8048,3.811,3.8109,3.814,3.8152,3.8161,3.8168,3.8202,3.8216,3.8065,3.8065,3.8065,0,0,3.798,3.7979,3.7997,3.8018,3.8021,3.8049,3.7994,3.8026,3.8047,3.7998,3.804,3.8037,3.8041,3.8095,3.8118,3.8094,3.821,3.8169,3.8176,3.8179,3.8209,3.8224,3.8236,3.8069,3.8069,3.8068,0,0,3.8074,3.8076,3.8119,3.8123,3.8128,3.8116,3.8126,3.8123,3.8119,3.8161,3.8126,3.8149,3.8186,3.8191,3.8198,3.8294,3.8266,3.83,3.8359,3.8392,3.8404,3.8414,3.8449,3.8462,3.8308,3.8308,3.8308,0,3.8128,3.8169,3.8144,3.8179,3.8189,3.8147,3.819,3.8195,3.8206,3.8214,3.8187,3.8233,3.8232,3.8287,3.8311,3.8318,3.8329,3.8301,3.8404,3.8414,3.8424,3.8457,3.847,3.8312,3.8312,3.8311,3.8311,0,3.8235,3.8264,3.8298,3.8311,3.8325,3.8364,3.8344,3.8361,3.8341,3.8332,3.8375,3.8374,3.8392,3.8403,3.8384,3.8455,3.844,3.8409,3.8362,3.8443,3.8474,3.8486,3.8318,3.8317,3.8315,3.8314,0,0,3.837,3.8369,3.8382,3.8387,3.8389,3.8411,3.8448,3.8466,3.8482,3.849,3.852,3.8553,3.8524,3.8533,3.8514,3.8542,3.8619,3.8508,3.8507,3.853,3.8699,3.8723,3.8738,3.86,3.8603,3.8604,3.8699,0,3.8463,3.8527,3.8505,3.857,3.8597,3.8557,3.8589,3.8594,3.8586,3.8607,3.8597,3.8622,3.8582,3.8587,3.8613,3.8605,3.8653,3.8597,3.8628,3.863,3.863,3.8754,3.8779,3.8868,3.871,3.8712,3.8714,0,3.858,3.8594,3.8662,3.866,3.8671,3.87,3.8715,3.8736,3.874,3.8732,3.8742,3.8717,3.8752,3.8705,3.8753,3.8716,3.8727,3.8725,3.8727,3.873,3.8678,3.8761,3.8896,3.891,3.8732,3.8731,3.8729,0,3.8673,3.8709,3.8755,3.876,3.8759,3.8781,3.8781,3.8783,3.8795,3.8808,3.8816,3.8833,3.8842,3.8855,3.8835,3.8802,3.8887,3.8837,3.8882,3.8883,3.8903,3.8902,3.9043,3.8908,3.8908,3.8908,3.8908,0,3.878,3.8823,3.8797,3.8825,3.8872,3.8846,3.8893,3.8889,3.8891,3.8917,3.8883,3.8908,3.888,3.8902,3.8887,3.893,3.8934,3.8929,3.8924,3.8933,3.8934,3.8941,3.8934,3.8911,3.8911,3.891,3.8909,0,3.8892,3.8877,3.8924,3.8919,3.8919,3.8954,3.8949,3.8975,3.8964,3.8998,3.9004,3.8988,3.9013,3.8994,3.9018,3.9007,3.9065,3.9051,3.9064,3.9061,3.9107,3.9103,3.9258,3.9277,3.9129,3.9131,3.9132,0,3.8962,3.8995,3.8994,3.9009,3.9012,3.9037,3.905,3.9026,3.904,3.9048,3.9073,3.9095,3.9111,3.9152,3.9142,3.916,3.9147,3.92,3.915,3.9158,3.915,3.9149,3.9152,3.9211,3.9213,3.9214,3.9215,0,3.9088,3.9078,3.9099,3.9117,3.9133,3.9146,3.9156,3.917,3.9145,3.9163,3.9189,3.9201,3.9226,3.9249,3.9263,3.9263,3.9236,3.9231,3.9243,3.9252,3.9259,3.9257,3.9093,3.9228,3.9227,3.9226,3.9225,3.9225,3.9182,3.9209,3.9213,3.9237,3.9242,3.9252,3.9276,3.9269,3.929,3.9309,3.9293,3.9323,3.9327,3.9344,3.9347,3.937,3.9348,3.9365,3.9369,3.9374,3.9381,3.9254,3.9372,3.9372,3.9372,3.9371,3.9371,0,3.9307,3.9307,3.933,3.9345,3.9364,3.9336,3.9346,3.9363,3.9391,3.9396,3.9413,3.9443,3.9464,3.9456,3.9475,3.9495,3.9483,3.9501,3.95,3.95,3.9399,3.9388,3.9511,3.9511,3.9511,3.951,3.951,3.951,3.9374,3.942,3.9411,3.9458,3.9458,3.9488,3.9496,3.9505,3.951,3.9544,3.9562,3.9557,3.9557,3.9576,3.9594,3.9591,3.96,3.9623,3.9616,3.9521,3.9507,3.9494,3.9484,3.9625,3.9625,3.9715,3.9716,3.9717]}]]